Location: Krasnoyarskiy
(51.1133°N, 71.6497°E)
Time: 23:58:05
(UTC+00:00)

Cosmos 2173 Rocket - Pass Details

Date: 27 September 2022
Orbit: 945 x 999 km, 83.0° (Epoch: 03 December)

Event Time Altitude Azimuth Distance (km) Brightness Sun altitude
Rises 00:16:02 0° 196° (SSW) 3,632 6.7 -8.8°
Reaches altitude 10° 00:18:33 10° 198° (SSW) 2,683 6.1 -8.4°
Maximum altitude 00:24:39 69° 282° (WNW) 1,014 3.9 -7.5°
Drops below altitude 10° 00:30:46 10° 6° (N) 2,680 6.5 -6.5°
Sets 00:33:17 0° 9° (N) 3,628 7.2 -6.1°
